"Datum/tijd (MEZT)";"astronomisch [cm]";"waterstand [cm]";"verwachte opzet";"verwachting RWS"
2024-04-14 01:00;57;65;11;68
2024-04-14 01:10;56;64;11;67
2024-04-14 01:20;56;64;10;66
2024-04-14 01:30;55;63;10;65
2024-04-14 01:40;55;62;9;64
2024-04-14 01:50;54;61;9;63
2024-04-14 02:00;54;60;8;62
2024-04-14 02:10;53;59;9;62
2024-04-14 02:20;53;59;8;61
2024-04-14 02:30;52;58;8;60
2024-04-14 02:40;51;57;8;59
2024-04-14 02:50;50;56;8;58
2024-04-14 03:00;50;56;8;58
2024-04-14 03:10;49;55;8;57
2024-04-14 03:20;48;55;7;55
2024-04-14 03:30;47;54;7;54
2024-04-14 03:40;46;53;7;53
2024-04-14 03:50;45;53;7;52
2024-04-14 04:00;45;51;6;51
2024-04-14 04:10;44;50;6;50
2024-04-14 04:20;43;49;6;49
2024-04-14 04:30;42;48;6;48
2024-04-14 04:40;41;47;6;47
2024-04-14 04:50;40;46;6;46
2024-04-14 05:00;39;45;6;45
2024-04-14 05:10;39;44;5;44
2024-04-14 05:20;38;43;5;43
2024-04-14 05:30;37;42;6;43
2024-04-14 05:40;37;42;5;42
2024-04-14 05:50;36;41;6;42
2024-04-14 06:00;35;40;5;40
2024-04-14 06:10;35;41;6;41
2024-04-14 06:20;34;41;7;41
2024-04-14 06:30;34;41;7;41
2024-04-14 06:40;34;41;7;41
2024-04-14 06:50;34;42;8;42
2024-04-14 07:00;34;44;10;44
2024-04-14 07:10;35;46;11;46
2024-04-14 07:20;36;47;11;47
2024-04-14 07:30;37;49;12;49
2024-04-14 07:40;38;51;13;51
2024-04-14 07:50;39;53;14;53
2024-04-14 08:00;41;55;14;55
2024-04-14 08:10;42;57;15;57
2024-04-14 08:20;44;58;14;58
2024-04-14 08:30;45;61;15;60
2024-04-14 08:40;47;62;15;62
2024-04-14 08:50;48;63;15;63
2024-04-14 09:00;49;65;16;65
2024-04-14 09:10;51;67;15;66
2024-04-14 09:20;52;68;16;68
2024-04-14 09:30;53;70;16;69
2024-04-14 09:40;54;71;17;71
2024-04-14 09:50;55;73;17;72
2024-04-14 10:00;56;73;17;73
2024-04-14 10:10;57;74;18;75
2024-04-14 10:20;58;75;18;76
2024-04-14 10:30;59;76;19;78
2024-04-14 10:40;60;77;20;80
2024-04-14 10:50;61;78;21;82
2024-04-14 11:00;62;80;21;83
2024-04-14 11:10;63;81;21;84
2024-04-14 11:20;63;83;22;85
2024-04-14 11:30;64;84;21;85
2024-04-14 11:40;64;84;21;85
2024-04-14 11:50;65;83;20;85
2024-04-14 12:00;65;82;17;82
2024-04-14 12:10;65;81;16;81
2024-04-14 12:20;64;80;16;80
2024-04-14 12:30;64;78;14;78
2024-04-14 12:40;64;78;14;78
2024-04-14 12:50;63;76;13;76
2024-04-14 13:00;63;75;12;75
2024-04-14 13:10;62;74;12;74
2024-04-14 13:20;62;73;11;73
2024-04-14 13:30;61;73;12;73
2024-04-14 13:40;61;72;11;72
2024-04-14 13:50;60;71;10;70
2024-04-14 14:00;60;70;9;69
2024-04-14 14:10;59;69;9;68
2024-04-14 14:20;59;69;8;67
2024-04-14 14:30;58;67;7;65
2024-04-14 14:40;57;66;6;63
2024-04-14 14:50;56;65;6;62
2024-04-14 15:00;56;64;5;61
2024-04-14 15:10;55;63;5;60
2024-04-14 15:20;54;62;5;59
2024-04-14 15:30;53;61;5;58
2024-04-14 15:40;52;60;5;57
2024-04-14 15:50;51;60;5;56
2024-04-14 16:00;50;58;4;54
2024-04-14 16:10;49;57;4;53
2024-04-14 16:20;49;56;3;52
2024-04-14 16:30;48;55;3;51
2024-04-14 16:40;47;54;2;49
2024-04-14 16:50;46;53;1;47
2024-04-14 17:00;45;52;1;46
2024-04-14 17:10;44;51;1;45
2024-04-14 17:20;44;51;0;44
2024-04-14 17:30;43;49;0;43
2024-04-14 17:40;42;48;0;42
2024-04-14 17:50;41;48;0;41
2024-04-14 18:00;41;47;-1;40
2024-04-14 18:10;40;46;-1;39
2024-04-14 18:20;39;45;-1;38
2024-04-14 18:30;38;45;0;38
2024-04-14 18:40;38;44;-2;36
2024-04-14 18:50;37;44;-1;36
2024-04-14 19:00;37;43;6;43
2024-04-14 19:10;37;43;6;43
2024-04-14 19:20;37;43;6;43
2024-04-14 19:30;37;44;7;44
2024-04-14 19:40;37;45;8;45
2024-04-14 19:50;38;47;9;47
2024-04-14 20:00;38;49;11;49
2024-04-14 20:10;39;50;11;50
2024-04-14 20:20;40;52;12;52
2024-04-14 20:30;41;52;13;54
2024-04-14 20:40;42;54;14;56
2024-04-14 20:50;44;56;13;57
2024-04-14 21:00;45;57;14;59
2024-04-14 21:10;46;58;14;60
2024-04-14 21:20;47;59;14;61
2024-04-14 21:30;48;61;15;63
2024-04-14 21:40;49;61;15;64
2024-04-14 21:50;50;63;15;65
2024-04-14 22:00;51;64;15;66
2024-04-14 22:10;52;65;15;67
2024-04-14 22:20;53;66;15;68
2024-04-14 22:30;54;67;15;69
2024-04-14 22:40;54;68;16;70
2024-04-14 22:50;55;69;16;71
2024-04-14 23:00;56;70;16;72
2024-04-14 23:10;57;70;16;73
2024-04-14 23:20;57;70;16;73
2024-04-14 23:30;58;71;16;74
2024-04-14 23:40;58;71;16;74
2024-04-14 23:50;59;70;15;74
2024-04-15 00:00;59;70;11;70
2024-04-15 00:10;59;69;10;69
2024-04-15 00:20;59;69;10;69
2024-04-15 00:30;59;69;10;69
2024-04-15 00:40;58;67;9;67
2024-04-15 00:50;58;67;9;67
2024-04-15 01:00;57;66;9;66
2024-04-15 01:10;57;65;8;65
2024-04-15 01:20;56;64;8;64
2024-04-15 01:30;56;64;8;64
2024-04-15 01:40;55;63;8;63
2024-04-15 01:50;55;62;7;62
2024-04-15 02:00;54;61;7;61
2024-04-15 02:10;54;60;7;61
2024-04-15 02:20;53;60;7;60
2024-04-15 02:30;53;59;6;59
2024-04-15 02:40;52;58;6;58
2024-04-15 02:50;51;57;7;58
2024-04-15 03:00;51;57;6;57
2024-04-15 03:10;50;56;6;56
2024-04-15 03:20;49;55;6;55
2024-04-15 03:30;49;53;5;54
2024-04-15 03:40;48;53;5;53
2024-04-15 03:50;47;52;4;51
2024-04-15 04:00;46;51;4;50
2024-04-15 04:10;45;49;4;49
2024-04-15 04:20;45;48;3;48
2024-04-15 04:30;44;48;3;47
2024-04-15 04:40;43;47;3;46
2024-04-15 04:50;42;46;2;44
2024-04-15 05:00;41;44;2;43
2024-04-15 05:10;40;44;2;42
2024-04-15 05:20;39;43;2;41
2024-04-15 05:30;39;42;1;40
2024-04-15 05:40;38;41;1;39
2024-04-15 05:50;37;40;1;38
2024-04-15 06:00;36;39;1;37
2024-04-15 06:10;35;39;1;36
2024-04-15 06:20;35;38;0;35
2024-04-15 06:30;34;37;1;35
2024-04-15 06:40;34;36;0;34
2024-04-15 06:50;33;36;0;33
2024-04-15 07:00;33;35;0;33
2024-04-15 07:10;33;35;0;33
2024-04-15 07:20;33;35;0;33
2024-04-15 07:30;33;35;0;33
2024-04-15 07:40;33;35;1;34
2024-04-15 07:50;34;37;1;35
2024-04-15 08:00;34;38;4;38
2024-04-15 08:10;35;39;4;39
2024-04-15 08:20;36;41;5;41
2024-04-15 08:30;37;42;5;42
2024-04-15 08:40;38;44;6;44
2024-04-15 08:50;39;46;7;46
2024-04-15 09:00;41;47;6;47
2024-04-15 09:10;42;49;7;49
2024-04-15 09:20;43;50;8;51
2024-04-15 09:30;45;52;7;52
2024-04-15 09:40;46;53;8;54
2024-04-15 09:50;47;55;8;55
2024-04-15 10:00;48;56;9;57
2024-04-15 10:10;49;57;9;58
2024-04-15 10:20;51;58;8;59
2024-04-15 10:30;52;59;9;61
2024-04-15 10:40;53;60;9;62
2024-04-15 10:50;54;61;9;63
2024-04-15 11:00;55;61;9;64
2024-04-15 11:10;56;62;9;65
2024-04-15 11:20;57;63;9;66
2024-04-15 11:30;58;64;9;67
2024-04-15 11:40;59;65;9;68
2024-04-15 11:50;59;66;10;69
2024-04-15 12:00;60;67;7;67
2024-04-15 12:10;61;68;7;68
2024-04-15 12:20;61;68;7;68
2024-04-15 12:30;61;68;7;68
2024-04-15 12:40;62;67;5;67
2024-04-15 12:50;62;67;5;67
2024-04-15 13:00;62;66;4;66
2024-04-15 13:10;62;66;4;66
2024-04-15 13:20;62;65;3;65
2024-04-15 13:30;62;63;1;63
2024-04-15 13:40;61;62;1;62
2024-04-15 13:50;61;61;0;61
2024-04-15 14:00;61;60;1;62
2024-04-15 14:10;60;59;3;63
2024-04-15 14:20;60;60;4;64
2024-04-15 14:30;60;60;5;65
2024-04-15 14:40;59;60;7;66
2024-04-15 14:50;59;;8;67
2024-04-15 15:00;58;62;9;67
2024-04-15 15:10;58;61;11;69
2024-04-15 15:20;57;60;11;68
2024-04-15 15:30;56;59;11;67
2024-04-15 15:40;55;58;11;66
2024-04-15 15:50;55;59;10;65
2024-04-15 16:00;54;60;10;64
2024-04-15 16:10;53;60;9;62
2024-04-15 16:20;52;60;8;60
2024-04-15 16:30;51;58;7;58
2024-04-15 16:40;51;57;6;57
2024-04-15 16:50;50;57;6;56
2024-04-15 17:00;49;58;6;55
2024-04-15 17:10;48;57;5;53
2024-04-15 17:20;47;58;5;52
2024-04-15 17:30;47;58;5;52
2024-04-15 17:40;46;56;5;51
2024-04-15 17:50;45;56;6;51
2024-04-15 18:00;44;55;11;55
2024-04-15 18:10;44;54;10;54
2024-04-15 18:20;43;55;12;55
2024-04-15 18:30;42;55;13;55
2024-04-15 18:40;41;55;14;55
2024-04-15 18:50;41;54;13;54
2024-04-15 19:00;40;54;14;54
2024-04-15 19:10;39;53;14;53
2024-04-15 19:20;39;53;14;53
2024-04-15 19:30;38;52;15;53
2024-04-15 19:40;38;52;16;54
2024-04-15 19:50;38;52;18;56
2024-04-15 20:00;38;55;20;58
2024-04-15 20:10;38;55;22;60
2024-04-15 20:20;38;58;25;63
2024-04-15 20:30;38;61;27;65
2024-04-15 20:40;39;62;29;68
2024-04-15 20:50;39;65;32;71
2024-04-15 21:00;40;67;34;74
2024-04-15 21:10;41;68;36;77
2024-04-15 21:20;42;70;37;79
2024-04-15 21:30;43;73;38;81
2024-04-15 21:40;43;76;39;82
2024-04-15 21:50;44;77;40;84
2024-04-15 22:00;45;78;40;85
2024-04-15 22:10;46;78;40;86
2024-04-15 22:20;47;80;41;88
2024-04-15 22:30;48;81;41;89
2024-04-15 22:40;49;82;41;90
2024-04-15 22:50;49;84;43;92
2024-04-15 23:00;50;86;44;94
2024-04-15 23:10;51;88;44;95
2024-04-15 23:20;52;89;45;97
2024-04-15 23:30;53;91;45;98
2024-04-15 23:40;53;93;46;99
2024-04-15 23:50;54;95;47;101
2024-04-16 00:00;54;96;42;96
2024-04-16 00:10;55;97;42;97
2024-04-16 00:20;55;98;43;98
2024-04-16 00:30;56;100;44;100
2024-04-16 00:40;56;100;44;100
2024-04-16 00:50;56;101;45;101
2024-04-16 01:00;56;101;45;101
2024-04-16 01:10;56;100;44;100
2024-04-16 01:20;56;101;45;101
2024-04-16 01:30;56;101;45;101
2024-04-16 01:40;56;100;44;100
2024-04-16 01:50;55;100;44;99
2024-04-16 02:00;55;99;42;97
2024-04-16 02:10;54;96;41;95
2024-04-16 02:20;54;95;40;94
2024-04-16 02:30;54;94;38;92
2024-04-16 02:40;53;92;38;91
2024-04-16 02:50;53;91;36;89
2024-04-16 03:00;52;88;37;89
2024-04-16 03:10;52;87;35;87
2024-04-16 03:20;51;86;35;86
2024-04-16 03:30;50;86;34;84
2024-04-16 03:40;50;86;32;82
2024-04-16 03:50;49;86;32;81
2024-04-16 04:00;48;86;31;79
2024-04-16 04:10;48;84;30;78
2024-04-16 04:20;47;82;29;76
2024-04-16 04:30;46;82;29;75
2024-04-16 04:40;45;81;29;74
2024-04-16 04:50;45;80;27;72
2024-04-16 05:00;44;78;27;71
2024-04-16 05:10;43;76;27;70
2024-04-16 05:20;42;74;27;69
2024-04-16 05:30;41;73;27;68
2024-04-16 05:40;41;71;26;67
2024-04-16 05:50;40;70;27;67
2024-04-16 06:00;39;70;28;67
2024-04-16 06:10;38;70;29;67
2024-04-16 06:20;37;71;29;66
2024-04-16 06:30;36;71;30;66
2024-04-16 06:40;36;71;30;66
2024-04-16 06:50;35;71;31;66
2024-04-16 07:00;34;73;39;73
2024-04-16 07:10;34;75;41;75
2024-04-16 07:20;33;77;44;77
2024-04-16 07:30;33;78;45;78
2024-04-16 07:40;32;79;47;79
2024-04-16 07:50;32;80;48;80
2024-04-16 08:00;32;82;50;82
2024-04-16 08:10;32;83;51;83
2024-04-16 08:20;32;85;53;85
2024-04-16 08:30;32;86;54;86
2024-04-16 08:40;33;88;55;88
2024-04-16 08:50;33;89;57;90
2024-04-16 09:00;34;92;58;92
2024-04-16 09:10;35;93;58;93
2024-04-16 09:20;36;94;59;95
2024-04-16 09:30;36;94;61;97
2024-04-16 09:40;37;96;62;99
2024-04-16 09:50;38;98;63;101
2024-04-16 10:00;39;99;64;103
2024-04-16 10:10;40;101;65;105
2024-04-16 10:20;42;104;65;107
2024-04-16 10:30;43;105;65;108
2024-04-16 10:40;44;105;66;110
2024-04-16 10:50;45;106;67;112
2024-04-16 11:00;46;108;68;114
2024-04-16 11:10;47;109;69;116
2024-04-16 11:20;48;110;69;117
2024-04-16 11:30;49;111;70;119
2024-04-16 11:40;50;112;71;121
2024-04-16 11:50;51;114;72;123
2024-04-16 12:00;52;116;64;116
2024-04-16 12:10;53;117;64;117
2024-04-16 12:20;54;118;64;118
2024-04-16 12:30;55;119;64;119
2024-04-16 12:40;56;121;65;121
2024-04-16 12:50;57;122;65;122
2024-04-16 13:00;57;124;67;124
2024-04-16 13:10;58;126;67;125
2024-04-16 13:20;58;126;67;125
2024-04-16 13:30;59;127;67;126
2024-04-16 13:40;59;127;66;125
2024-04-16 13:50;59;128;65;124
2024-04-16 14:00;59;127;65;124
2024-04-16 14:10;60;125;62;122
2024-04-16 14:20;60;122;61;121
2024-04-16 14:30;60;120;59;119
2024-04-16 14:40;60;119;58;118
2024-04-16 14:50;59;117;57;116
2024-04-16 15:00;59;116;55;114
2024-04-16 15:10;59;114;53;112
2024-04-16 15:20;59;113;52;111
2024-04-16 15:30;59;111;49;108
2024-04-16 15:40;58;110;48;106
2024-04-16 15:50;58;;46;104
2024-04-16 16:00;57;108;46;103
2024-04-16 16:10;56;106;45;101
2024-04-16 16:20;56;104;43;99
2024-04-16 16:30;55;102;43;98
2024-04-16 16:40;54;100;42;96
2024-04-16 16:50;54;99;40;94
2024-04-16 17:00;53;97;40;93
2024-04-16 17:10;52;95;39;91
2024-04-16 17:20;52;93;38;90
2024-04-16 17:30;51;91;37;88
2024-04-16 17:40;50;90;37;87
2024-04-16 17:50;49;89;37;86
2024-04-16 18:00;49;87;38;87
2024-04-16 18:10;48;86;38;86
2024-04-16 18:20;47;84;37;84
2024-04-16 18:30;47;81;34;81
2024-04-16 18:40;46;80;34;80
2024-04-16 18:50;45;79;34;79
2024-04-16 19:00;45;78;33;78
2024-04-16 19:10;44;77;33;77
2024-04-16 19:20;43;76;33;76
2024-04-16 19:30;42;76;34;76
2024-04-16 19:40;42;75;32;74
2024-04-16 19:50;41;74;32;73
2024-04-16 20:00;41;74;31;72
2024-04-16 20:10;40;72;30;70
2024-04-16 20:20;40;71;29;69
2024-04-16 20:30;39;70;29;68
2024-04-16 20:40;39;70;29;68
2024-04-16 20:50;39;69;28;67
2024-04-16 21:00;39;69;28;67
2024-04-16 21:10;39;68;27;66
2024-04-16 21:20;39;68;27;66
2024-04-16 21:30;39;68;27;66
2024-04-16 21:40;40;70;27;67
2024-04-16 21:50;40;73;27;67
2024-04-16 22:00;41;75;27;68
2024-04-16 22:10;41;77;28;69
2024-04-16 22:20;42;78;29;71
2024-04-16 22:30;42;77;30;72
2024-04-16 22:40;43;78;31;74
2024-04-16 22:50;43;78;32;75
2024-04-16 23:00;44;79;32;76
2024-04-16 23:10;45;79;31;76
2024-04-16 23:20;45;79;32;77
2024-04-16 23:30;46;80;32;78
2024-04-16 23:40;47;80;31;78
2024-04-16 23:50;48;81;31;79
2024-04-17 00:00;48;82;31;79
2024-04-17 00:10;49;82;29;78
2024-04-17 00:20;50;84;29;79
2024-04-17 00:30;50;84;29;79
2024-04-17 00:40;51;;28;79
2024-04-17 00:50;52;;27;79
2024-04-17 01:00;52;;32;84
2024-04-17 01:10;53;84;31;84
2024-04-17 01:20;53;84;31;84
2024-04-17 01:30;53;83;30;83
2024-04-17 01:40;54;82;28;82
2024-04-17 01:50;54;82;28;82
2024-04-17 02:00;54;81;33;87
2024-04-17 02:10;54;80;32;86
2024-04-17 02:20;54;80;32;86
2024-04-17 02:30;54;80;30;84
2024-04-17 02:40;54;79;30;84
2024-04-17 02:50;54;79;30;84
2024-04-17 03:00;53;79;30;83
2024-04-17 03:10;53;80;29;82
2024-04-17 03:20;53;79;28;81
2024-04-17 03:30;52;77;29;81
2024-04-17 03:40;52;76;27;79
2024-04-17 03:50;51;75;27;78
2024-04-17 04:00;51;73;26;77
2024-04-17 04:10;50;73;26;76
2024-04-17 04:20;50;72;25;75
2024-04-17 04:30;49;71;25;74
2024-04-17 04:40;49;70;24;73
2024-04-17 04:50;48;70;24;72
2024-04-17 05:00;47;69;23;70
2024-04-17 05:10;47;68;22;69
2024-04-17 05:20;46;67;21;67
2024-04-17 05:30;45;66;21;66
2024-04-17 05:40;45;65;20;65
2024-04-17 05:50;44;64;20;64
2024-04-17 06:00;43;63;20;63
2024-04-17 06:10;42;62;19;61
2024-04-17 06:20;42;62;18;60
2024-04-17 06:30;41;61;18;59
2024-04-17 06:40;40;60;18;58
2024-04-17 06:50;39;59;18;57
2024-04-17 07:00;38;58;18;56
2024-04-17 07:10;37;57;18;55
2024-04-17 07:20;37;56;16;53
2024-04-17 07:30;36;55;16;52
2024-04-17 07:40;35;55;16;51
2024-04-17 07:50;35;54;15;50
2024-04-17 08:00;34;53;19;53
2024-04-17 08:10;33;52;19;52
2024-04-17 08:20;33;51;18;51
2024-04-17 08:30;33;51;18;51
2024-04-17 08:40;32;50;18;50
2024-04-17 08:50;32;50;18;50
2024-04-17 09:00;32;49;17;49
2024-04-17 09:10;32;49;16;48
2024-04-17 09:20;32;49;16;48
2024-04-17 09:30;32;;16;48
2024-04-17 09:40;33;49;15;48
2024-04-17 09:50;33;50;15;48
2024-04-17 10:00;33;48;16;49
2024-04-17 10:10;34;48;16;50
2024-04-17 10:20;34;49;17;51
2024-04-17 10:30;35;50;17;52
2024-04-17 10:40;36;51;16;52
2024-04-17 10:50;36;52;18;54
2024-04-17 11:00;37;53;18;55
2024-04-17 11:10;38;55;19;57
2024-04-17 11:20;39;56;19;58
2024-04-17 11:30;40;59;19;59
2024-04-17 11:40;41;58;20;61
2024-04-17 11:50;42;60;20;62
2024-04-17 12:00;43;62;19;62
2024-04-17 12:10;44;64;20;64
2024-04-17 12:20;45;65;20;65
2024-04-17 12:30;46;66;20;66
2024-04-17 12:40;47;67;20;67
2024-04-17 12:50;48;68;20;68
2024-04-17 13:00;49;71;22;71
2024-04-17 13:10;50;72;22;72
2024-04-17 13:20;51;73;22;73
2024-04-17 13:30;52;74;22;74
2024-04-17 13:40;53;75;22;75
2024-04-17 13:50;54;77;22;76
2024-04-17 14:00;54;78;24;78
2024-04-17 14:10;55;80;24;79
2024-04-17 14:20;56;81;24;80
2024-04-17 14:30;56;81;25;81
2024-04-17 14:40;57;80;24;81
2024-04-17 14:50;57;80;25;82
2024-04-17 15:00;58;81;25;83
2024-04-17 15:10;58;81;25;83
2024-04-17 15:20;58;81;25;83
2024-04-17 15:30;58;81;25;83
2024-04-17 15:40;59;80;24;83
2024-04-17 15:50;59;80;24;83
2024-04-17 16:00;59;80;23;82
2024-04-17 16:10;59;80;23;82
2024-04-17 16:20;58;81;23;81
2024-04-17 16:30;58;82;22;80
2024-04-17 16:40;58;83;21;79
2024-04-17 16:50;57;82;21;78
2024-04-17 17:00;57;78;21;78
2024-04-17 17:10;56;76;21;77
2024-04-17 17:20;56;74;21;77
2024-04-17 17:30;55;74;21;76
2024-04-17 17:40;55;76;21;76
2024-04-17 17:50;54;76;21;75
2024-04-17 18:00;53;74;21;74
2024-04-17 18:10;53;72;21;74
2024-04-17 18:20;52;72;21;73
2024-04-17 18:30;51;71;21;72
2024-04-17 18:40;51;72;19;70
2024-04-17 18:50;50;72;19;69
2024-04-17 19:00;50;71;21;71
2024-04-17 19:10;49;71;22;71
2024-04-17 19:20;48;69;21;69
2024-04-17 19:30;48;69;21;69
2024-04-17 19:40;47;68;21;68
2024-04-17 19:50;46;67;21;67
2024-04-17 20:00;46;65;19;65
2024-04-17 20:10;45;64;19;64
2024-04-17 20:20;44;62;18;62
2024-04-17 20:30;43;61;18;61
2024-04-17 20:40;43;61;18;61
2024-04-17 20:50;42;61;19;61
2024-04-17 21:00;42;59;17;59
2024-04-17 21:10;41;58;17;58
2024-04-17 21:20;41;58;16;57
2024-04-17 21:30;40;57;16;56
2024-04-17 21:40;40;58;15;55
2024-04-17 21:50;40;58;14;54
2024-04-17 22:00;39;57;14;53
2024-04-17 22:10;39;56;14;53
2024-04-17 22:20;39;56;13;52
2024-04-17 22:30;39;56;14;53
2024-04-17 22:40;39;55;14;53
2024-04-17 22:50;40;55;13;53
2024-04-17 23:00;40;55;13;53
2024-04-17 23:10;40;55;13;53
2024-04-17 23:20;40;55;13;53
2024-04-17 23:30;41;56;13;54
2024-04-17 23:40;41;56;14;55
2024-04-17 23:50;41;58;15;56
2024-04-18 00:00;42;58;15;57
2024-04-18 00:10;42;59;16;58
2024-04-18 00:20;43;60;16;59
2024-04-18 00:30;44;60;16;60
2024-04-18 00:40;44;62;17;61
2024-04-18 00:50;45;62;17;62
2024-04-18 01:00;46;63;17;63
2024-04-18 01:10;47;64;17;64
2024-04-18 01:20;47;64;17;64
2024-04-18 01:30;48;65;17;65
2024-04-18 01:40;49;66;17;66
2024-04-18 01:50;49;67;18;67
2024-04-18 02:00;50;68;18;68
2024-04-18 02:10;51;68;18;69
2024-04-18 02:20;51;69;18;69
2024-04-18 02:30;52;69;17;69
2024-04-18 02:40;52;70;18;70
2024-04-18 02:50;52;70;18;70
2024-04-18 03:00;53;69;16;69
2024-04-18 03:10;53;69;15;68
2024-04-18 03:20;53;68;15;68
2024-04-18 03:30;53;68;15;68
2024-04-18 03:40;53;68;14;67
2024-04-18 03:50;53;67;14;67
2024-04-18 04:00;53;67;13;66
2024-04-18 04:10;52;67;14;66
2024-04-18 04:20;52;67;13;65
2024-04-18 04:30;52;66;12;64
2024-04-18 04:40;52;66;12;64
2024-04-18 04:50;51;65;12;63
2024-04-18 05:00;51;65;10;61
2024-04-18 05:10;50;64;11;61
2024-04-18 05:20;50;64;10;60
2024-04-18 05:30;50;63;9;59
2024-04-18 05:40;49;62;10;59
2024-04-18 05:50;48;62;10;58
2024-04-18 06:00;48;61;10;58
2024-04-18 06:10;47;60;10;57
2024-04-18 06:20;47;60;9;56
2024-04-18 06:30;46;59;10;56
2024-04-18 06:40;45;58;10;55
2024-04-18 06:50;45;57;9;54
2024-04-18 07:00;44;57;13;57
2024-04-18 07:10;43;56;13;56
2024-04-18 07:20;42;55;13;55
2024-04-18 07:30;41;54;13;54
2024-04-18 07:40;41;53;12;53
2024-04-18 07:50;40;52;12;52
2024-04-18 08:00;39;51;12;51
2024-04-18 08:10;38;51;12;50
2024-04-18 08:20;38;50;11;49
2024-04-18 08:30;37;49;10;47
2024-04-18 08:40;36;48;10;46
2024-04-18 08:50;36;46;9;45
2024-04-18 09:00;35;47;12;47
2024-04-18 09:10;35;46;11;46
2024-04-18 09:20;34;45;11;45
2024-04-18 09:30;34;45;11;45
2024-04-18 09:40;33;44;11;44
2024-04-18 09:50;33;43;10;43
2024-04-18 10:00;33;43;10;43
2024-04-18 10:10;32;42;10;42
2024-04-18 10:20;32;41;9;41
2024-04-18 10:30;32;41;9;41
2024-04-18 10:40;32;41;9;41
2024-04-18 10:50;32;41;9;41
2024-04-18 11:00;32;41;9;41
2024-04-18 11:10;32;40;9;41
2024-04-18 11:20;33;41;8;41
2024-04-18 11:30;33;42;9;42
2024-04-18 11:40;33;;8;41
2024-04-18 11:50;34;43;8;42
2024-04-18 12:00;34;43;10;44
2024-04-18 12:10;35;44;10;45
2024-04-18 12:20;36;45;10;46
2024-04-18 12:30;37;47;11;48
2024-04-18 12:40;38;48;11;49
2024-04-18 12:50;39;50;11;50
2024-04-18 13:00;40;51;12;52
2024-04-18 13:10;41;52;11;52
2024-04-18 13:20;42;54;11;53
2024-04-18 13:30;43;55;12;55
2024-04-18 13:40;45;56;11;56
2024-04-18 13:50;46;57;11;57
2024-04-18 14:00;47;59;11;58
2024-04-18 14:10;48;61;12;60
2024-04-18 14:20;49;63;12;61
2024-04-18 14:30;50;64;12;62
2024-04-18 14:40;51;64;11;62
2024-04-18 14:50;52;65;11;63
2024-04-18 15:00;53;66;11;64
2024-04-18 15:10;54;68;11;65
2024-04-18 15:20;54;68;12;66
2024-04-18 15:30;55;69;12;67
2024-04-18 15:40;56;70;12;68
2024-04-18 15:50;56;71;13;69
2024-04-18 16:00;57;;13;70
2024-04-18 16:10;58;73;12;70
2024-04-18 16:20;58;;12;70
2024-04-18 16:30;58;74;12;70
2024-04-18 16:40;59;74;11;70
2024-04-18 16:50;59;74;11;70
2024-04-18 17:00;59;74;11;70
2024-04-18 17:10;59;73;10;69
2024-04-18 17:20;59;73;10;69
2024-04-18 17:30;59;72;9;68
2024-04-18 17:40;58;71;9;67
2024-04-18 17:50;58;70;8;66
2024-04-18 18:00;58;70;8;66
2024-04-18 18:10;57;70;8;65
2024-04-18 18:20;57;69;7;64
2024-04-18 18:30;56;69;7;63
2024-04-18 18:40;56;68;7;63
2024-04-18 18:50;55;67;7;62
2024-04-18 19:00;54;67;7;61
2024-04-18 19:10;54;66;6;60
2024-04-18 19:20;53;65;7;60
2024-04-18 19:30;53;64;6;59
2024-04-18 19:40;52;64;6;58
2024-04-18 19:50;52;62;5;57
2024-04-18 20:00;51;62;6;57
2024-04-18 20:10;50;61;6;56
2024-04-18 20:20;50;60;5;55
2024-04-18 20:30;49;59;5;54
2024-04-18 20:40;48;59;5;53
2024-04-18 20:50;48;58;4;52
2024-04-18 21:00;47;57;4;51
2024-04-18 21:10;46;56;4;50
2024-04-18 21:20;45;55;4;49
2024-04-18 21:30;45;54;3;48
2024-04-18 21:40;44;53;3;47
2024-04-18 21:50;43;52;3;46
2024-04-18 22:00;42;51;3;45
2024-04-18 22:10;42;50;2;44
2024-04-18 22:20;41;50;3;44
2024-04-18 22:30;40;49;3;43
2024-04-18 22:40;40;48;2;42
2024-04-18 22:50;39;48;2;41
2024-04-18 23:00;39;47;1;40
2024-04-18 23:10;39;46;1;40
2024-04-18 23:20;39;45;0;39
2024-04-18 23:30;38;44;1;39
2024-04-18 23:40;38;44;0;38
2024-04-18 23:50;38;44;0;38
2024-04-19 00:00;38;44;6;44
2024-04-19 00:10;38;44;6;44
2024-04-19 00:20;38;44;6;44
2024-04-19 00:30;39;44;5;44
2024-04-19 00:40;39;44;5;44
2024-04-19 00:50;39;45;6;45
2024-04-19 01:00;40;46;6;46
2024-04-19 01:10;40;47;7;47
2024-04-19 01:20;41;48;7;48
2024-04-19 01:30;42;51;9;51
2024-04-19 01:40;42;52;10;52
2024-04-19 01:50;43;54;10;53
2024-04-19 02:00;44;55;11;55
2024-04-19 02:10;45;56;11;56
2024-04-19 02:20;46;57;11;57
2024-04-19 02:30;47;59;11;58
2024-04-19 02:40;48;59;11;59
2024-04-19 02:50;48;60;12;60
2024-04-19 03:00;49;60;12;61
2024-04-19 03:10;50;61;12;62
2024-04-19 03:20;51;61;12;63
2024-04-19 03:30;51;62;13;64
2024-04-19 03:40;52;63;13;65
2024-04-19 03:50;52;64;14;66
2024-04-19 04:00;53;64;14;67
2024-04-19 04:10;53;65;15;68
2024-04-19 04:20;53;66;15;68
2024-04-19 04:30;53;66;16;69
2024-04-19 04:40;53;67;17;70
2024-04-19 04:50;53;68;17;70
2024-04-19 05:00;53;69;18;71
2024-04-19 05:10;53;69;18;71
2024-04-19 05:20;53;69;17;70
2024-04-19 05:30;53;68;17;70
2024-04-19 05:40;53;68;17;70
2024-04-19 05:50;52;67;17;69
2024-04-19 06:00;52;67;17;69
2024-04-19 06:10;52;67;16;68
2024-04-19 06:20;51;66;17;68
2024-04-19 06:30;51;66;16;67
2024-04-19 06:40;50;66;16;66
2024-04-19 06:50;50;65;16;66
2024-04-19 07:00;49;65;16;65
2024-04-19 07:10;49;65;16;65
2024-04-19 07:20;48;65;17;65
2024-04-19 07:30;47;65;18;65
2024-04-19 07:40;47;64;17;64
2024-04-19 07:50;46;64;18;64
2024-04-19 08:00;45;63;18;63
2024-04-19 08:10;45;63;18;63
2024-04-19 08:20;44;63;18;62
2024-04-19 08:30;43;62;19;62
2024-04-19 08:40;42;62;20;62
2024-04-19 08:50;41;61;20;61
2024-04-19 09:00;41;60;20;61
2024-04-19 09:10;40;60;20;60
2024-04-19 09:20;39;59;21;60
2024-04-19 09:30;38;57;21;59
2024-04-19 09:40;38;53;21;59
2024-04-19 09:50;37;51;21;58
2024-04-19 10:00;36;49;22;58
2024-04-19 10:10;36;47;21;57
2024-04-19 10:20;35;46;22;57
2024-04-19 10:30;34;46;22;56
2024-04-19 10:40;34;44;22;56
2024-04-19 10:50;33;43;23;56
2024-04-19 11:00;33;42;22;55
2024-04-19 11:10;32;43;23;55
2024-04-19 11:20;32;43;22;54
2024-04-19 11:30;32;44;23;55
2024-04-19 11:40;31;46;24;55
2024-04-19 11:50;31;48;25;56
2024-04-19 12:00;31;50;26;57
2024-04-19 12:10;31;51;27;58
2024-04-19 12:20;31;52;28;59
2024-04-19 12:30;31;52;29;60
2024-04-19 12:40;31;54;31;62
2024-04-19 12:50;32;;32;64
2024-04-19 13:00;32;;34;66
2024-04-19 13:10;33;;34;67
2024-04-19 13:20;34;;35;69
2024-04-19 13:30;35;;36;71
2024-04-19 13:40;36;;36;72
2024-04-19 13:50;37;;37;74
2024-04-19 14:00;39;;37;76
2024-04-19 14:10;40;;38;78
2024-04-19 14:20;41;;39;80
2024-04-19 14:30;43;;38;81